START_TIME,STEP,MOV.,M6,t_acc.,M7,t_acc.,M19,t_acc.,H36,t_acc.
1979-07-13 09:00:27.440 ,0,0,0.,12.0,0.,12.0,0.,12.0,0.,12.0
1979-07-13 09:00:39.440 ,0,0,0.,12.0,0.,12.0,0.,12.0,0.,12.0
1979-07-13 09:00:51.440 ,0,1,0.,12.0,0.,12.0,0.,12.0,0.,12.0
1979-07-13 09:01:03.440 ,0,1,0.,12.0,0.,12.0,0.,12.0,0.,12.0
1979-07-13 09:01:15.440 ,0,0,0.,12.0,0.,12.0,0.,12.0,0.,12.0
1979-07-13 09:01:27.440 ,0,0,0.,12.0,0.,12.0,0.,12.0,0.,12.0
1979-07-13 09:01:39.440 ,1,1,0.,12.0,0.,12.0,0.,12.0,0.,12.0
1979-07-13 09:01:51.440 ,1,1,0.,12.0,0.,12.0,0.,12.0,0.,12.0
1979-07-13 09:02:03.440 ,1,0,1.,12.0,0.,12.0,0.,12.0,0.,12.0
1979-07-13 09:02:15.440 ,1,0,0.,12.0,0.,12.0,0.,12.0,0.,12.0
1979-07-13 09:02:27.440 ,2,1,0.,12.0,0.,12.0,0.,12.0,0.,12.0
1979-07-13 09:02:39.440 ,2,1,0.,12.0,0.,12.0,0.,12.0,0.,12.0
1979-07-13 09:02:51.440 ,2,0,0.,12.0,0.,12.0,0.,12.0,0.,12.0
1979-07-13 09:03:03.440 ,2,0,0.,12.0,0.,12.0,0.,12.0,0.,12.0
1979-07-13 09:03:15.440 ,3,1,0.,12.0,0.,12.0,0.,12.0,0.,12.0
1979-07-13 09:03:27.440 ,3,1,0.,12.0,0.,12.0,0.,12.0,0.,12.0
1979-07-13 09:03:39.440 ,3,0,1.,12.0,0.,12.0,0.,12.0,0.,12.0
1979-07-13 09:03:51.440 ,3,0,0.,12.0,0.,12.0,0.,12.0,0.,12.0
1979-07-13 09:04:03.440 ,4,1,0.,12.0,0.,12.0,0.,12.0,0.,12.0
1979-07-13 09:04:15.440 ,4,1,0.,12.0,0.,12.0,0.,12.0,0.,12.0
1979-07-13 09:04:27.440 ,4,0,0.,12.0,0.,12.0,0.,12.0,0.,12.0
1979-07-13 09:04:39.440 ,4,0,0.,12.0,0.,12.0,0.,12.0,0.,12.0
1979-07-13 09:04:51.440 ,5,1,0.,12.0,0.,12.0,0.,12.0,0.,12.0
1979-07-13 09:05:03.440 ,5,1,0.,12.0,0.,12.0,0.,12.0,0.,12.0
1979-07-13 09:05:15.440 ,5,0,0.,12.0,0.,12.0,0.,12.0,0.,12.0
1979-07-13 09:05:27.440 ,5,0,0.,12.0,0.,12.0,0.,12.0,0.,12.0
1979-07-13 09:05:39.440 ,6,1,0.,12.0,0.,12.0,0.,12.0,0.,12.0
1979-07-13 09:05:51.440 ,6,1,0.,12.0,0.,12.0,0.,12.0,0.,12.0
1979-07-13 09:06:03.440 ,6,0,0.,12.0,0.,12.0,0.,12.0,0.,12.0
1979-07-13 09:06:15.440 ,6,0,0.,12.0,0.,12.0,0.,12.0,0.,12.0
1979-07-13 09:08:03.440 ,0,0,0.,12.0,0.,12.0,0.,12.0,0.,12.0
1979-07-13 09:08:15.440 ,0,0,0.,12.0,0.,12.0,0.,12.0,0.,12.0
1979-07-13 09:08:27.440 ,7,1,0.,12.0,0.,12.0,0.,12.0,0.,12.0
1979-07-13 09:08:39.440 ,7,1,0.,12.0,0.,12.0,0.,12.0,0.,12.0
1979-07-13 09:08:51.440 ,4,1,0.,12.0,0.,12.0,0.,12.0,0.,12.0
1979-07-13 09:09:03.440 ,4,1,0.,12.0,0.,12.0,0.,12.0,0.,12.0
1979-07-13 09:09:15.440 ,0,1,0.,12.0,0.,12.0,0.,12.0,0.,12.0
1979-07-13 09:09:27.440 ,0,1,0.,12.0,0.,12.0,0.,12.0,0.,12.0
1979-07-13 09:09:39.440 ,3,1,0.,12.0,0.,12.0,0.,12.0,0.,12.0
1979-07-13 09:09:51.440 ,3,1,0.,12.0,0.,12.0,0.,12.0,1.,12.0
1979-07-13 09:10:03.440 ,7,1,0.,12.0,0.,12.0,0.,12.0,0.,12.0
1979-07-13 09:10:15.440 ,7,1,1.,12.0,0.,12.0,0.,12.0,0.,12.0
1979-07-13 09:10:27.440 ,4,1,0.,12.0,0.,12.0,0.,12.0,0.,12.0
1979-07-13 09:10:39.440 ,4,1,0.,12.0,0.,12.0,0.,12.0,0.,12.0
1979-07-13 09:10:27.440 ,4,1,0.,12.0,0.,12.0,0.,12.0,0.,12.0
1979-07-13 09:10:39.440 ,4,1,0.,12.0,0.,12.0,0.,12.0,0.,12.0
1979-07-13 09:10:51.440 ,0,1,0.,12.0,0.,12.0,0.,12.0,0.,12.0
1979-07-13 09:11:03.440 ,0,1,0.,12.0,0.,12.0,0.,12.0,0.,12.0
1979-07-13 09:11:15.440 ,3,1,0.,12.0,0.,12.0,0.,12.0,0.,12.0
1979-07-13 09:11:27.440 ,3,1,0.,12.0,0.,12.0,0.,12.0,0.,12.0
1979-07-13 09:11:39.440 ,7,1,0.,12.0,0.,12.0,0.,12.0,0.,12.0
1979-07-13 09:11:51.440 ,7,1,0.,12.0,0.,12.0,0.,12.0,1.,12.0
1979-07-13 09:12:03.440 ,4,1,0.,12.0,0.,12.0,0.,12.0,0.,12.0
1979-07-13 09:12:15.440 ,4,1,0.,12.0,0.,12.0,0.,12.0,0.,12.0
1979-07-13 09:12:27.440 ,0,1,0.,12.0,0.,12.0,0.,12.0,0.,12.0
1979-07-13 09:12:39.440 ,0,1,0.,12.0,0.,12.0,0.,12.0,0.,12.0
1979-07-13 09:12:51.440 ,3,1,0.,12.0,0.,12.0,0.,12.0,0.,12.0
1979-07-13 09:13:03.440 ,3,1,0.,12.0,0.,12.0,0.,12.0,0.,12.0
1979-07-13 09:13:15.440 ,7,1,0.,12.0,0.,12.0,0.,12.0,0.,12.0
1979-07-13 09:13:27.440 ,7,1,0.,12.0,0.,12.0,0.,12.0,0.,12.0
1979-07-13 09:13:39.440 ,4,1,0.,12.0,0.,12.0,0.,12.0,0.,12.0
1979-07-13 09:13:51.440 ,4,1,0.,12.0,0.,12.0,0.,12.0,0.,12.0
1979-07-13 09:14:03.440 ,0,1,0.,12.0,0.,12.0,0.,12.0,0.,12.0
1979-07-13 09:14:15.440 ,0,1,0.,12.0,0.,12.0,0.,12.0,0.,12.0
1979-07-13 09:14:27.440 ,3,1,0.,12.0,0.,12.0,0.,12.0,0.,12.0
1979-07-13 09:14:39.440 ,3,1,0.,12.0,0.,12.0,0.,12.0,0.,12.0
1979-07-13 09:14:51.440 ,7,1,0.,12.0,0.,12.0,0.,12.0,0.,12.0
1979-07-13 09:15:03.440 ,7,1,0.,12.0,0.,12.0,0.,12.0,0.,12.0
1979-07-13 09:15:15.440 ,4,1,0.,12.0,0.,12.0,0.,12.0,0.,12.0
1979-07-13 09:15:27.440 ,4,1,0.,12.0,0.,12.0,0.,12.0,0.,12.0
1979-07-13 09:15:39.440 ,0,1,0.,12.0,0.,12.0,0.,12.0,0.,12.0
1979-07-13 09:15:51.440 ,0,1,0.,12.0,0.,12.0,0.,12.0,0.,12.0
1979-07-13 09:16:03.440 ,3,1,0.,12.0,0.,12.0,0.,12.0,0.,12.0
1979-07-13 09:16:15.440 ,3,1,0.,12.0,0.,12.0,0.,12.0,0.,12.0
1979-07-13 09:16:27.440 ,7,1,0.,12.0,0.,12.0,0.,12.0,0.,12.0
1979-07-13 09:16:39.440 ,7,1,0.,12.0,0.,12.0,0.,12.0,0.,12.0
1979-07-13 09:16:51.440 ,4,1,0.,12.0,0.,12.0,0.,12.0,0.,12.0
1979-07-13 09:17:03.440 ,4,1,0.,12.0,0.,12.0,0.,12.0,0.,12.0
1979-07-13 09:17:15.440 ,0,1,0.,12.0,0.,12.0,0.,12.0,0.,12.0
1979-07-13 09:17:27.440 ,0,1,0.,12.0,0.,12.0,0.,12.0,0.,12.0
1979-07-13 09:17:39.440 ,0,0,0.,12.0,0.,12.0,0.,12.0,0.,12.0
1979-07-13 09:17:51.440 ,0,0,0.,12.0,0.,12.0,0.,12.0,0.,12.0
1979-07-13 09:18:03.440 ,0,0,0.,12.0,0.,12.0,0.,12.0,0.,12.0
1979-07-13 09:18:15.440 ,0,0,0.,12.0,0.,12.0,0.,12.0,0.,12.0
1979-07-13 09:18:27.440 ,5,1,0.,12.0,0.,12.0,0.,12.0,0.,12.0
1979-07-13 09:18:39.440 ,5,1,0.,12.0,0.,12.0,0.,12.0,0.,12.0
1979-07-13 09:18:51.440 ,5,0,0.,12.0,0.,12.0,0.,12.0,0.,12.0
1979-07-13 09:19:03.440 ,5,0,0.,12.0,0.,12.0,0.,12.0,0.,12.0
1979-07-13 09:19:15.440 ,4,1,0.,12.0,0.,12.0,0.,12.0,0.,12.0
1979-07-13 09:19:27.440 ,4,1,0.,12.0,0.,12.0,0.,12.0,0.,12.0
1979-07-13 09:19:39.440 ,4,0,0.,12.0,0.,12.0,0.,12.0,0.,12.0
1979-07-13 09:19:51.440 ,4,0,0.,12.0,0.,12.0,0.,12.0,0.,12.0
1979-07-13 09:20:03.440 ,3,1,0.,12.0,0.,12.0,0.,12.0,0.,12.0
1979-07-13 09:20:15.440 ,3,1,0.,12.0,0.,12.0,0.,12.0,0.,12.0
1979-07-13 09:20:27.440 ,3,0,0.,12.0,0.,12.0,0.,12.0,0.,12.0
1979-07-13 09:20:39.440 ,3,0,0.,12.0,0.,12.0,0.,12.0,0.,12.0
1979-07-13 09:20:51.440 ,2,1,0.,12.0,0.,12.0,0.,12.0,0.,12.0
1979-07-13 09:21:03.440 ,2,1,0.,12.0,0.,12.0,0.,12.0,0.,12.0
1979-07-13 09:21:15.440 ,2,0,0.,12.0,0.,12.0,0.,12.0,0.,12.0
1979-07-13 09:21:27.440 ,2,0,0.,12.0,0.,12.0,0.,12.0,0.,12.0
1979-07-13 09:21:39.440 ,1,1,0.,12.0,0.,12.0,0.,12.0,0.,12.0
1979-07-13 09:21:51.440 ,1,1,0.,12.0,0.,12.0,0.,12.0,0.,12.0
1979-07-13 09:22:03.440 ,1,0,0.,12.0,0.,12.0,0.,12.0,0.,12.0
1979-07-13 09:22:15.440 ,1,0,0.,12.0,0.,12.0,0.,12.0,0.,12.0
1979-07-13 09:22:27.440 ,0,1,0.,12.0,0.,12.0,0.,12.0,0.,12.0
1979-07-13 09:22:39.440 ,0,1,0.,12.0,0.,12.0,0.,12.0,0.,12.0
1979-07-13 09:22:51.440 ,0,0,0.,12.0,0.,12.0,0.,12.0,0.,12.0
1979-07-13 09:23:03.440 ,0,0,0.,12.0,0.,12.0,0.,12.0,1.,12.0
1979-07-13 09:23:15.440 ,0,1,0.,12.0,0.,12.0,0.,12.0,0.,12.0
1979-07-13 09:23:27.440 ,0,1,0.,12.0,0.,12.0,0.,12.0,0.,12.0
1979-07-13 09:23:39.440 ,0,0,0.,12.0,0.,12.0,0.,12.0,0.,12.0
1979-07-13 09:23:51.440 ,0,0,0.,12.0,0.,12.0,0.,12.0,0.,12.0
1979-07-13 09:24:03.440 ,1,1,0.,12.0,0.,12.0,0.,12.0,0.,12.0
1979-07-13 09:24:15.440 ,1,1,0.,12.0,0.,12.0,0.,12.0,0.,12.0
1979-07-13 09:24:27.440 ,1,0,0.,12.0,0.,12.0,0.,12.0,0.,12.0
1979-07-13 09:24:39.440 ,1,0,0.,12.0,0.,12.0,0.,12.0,0.,12.0
1979-07-13 09:24:51.440 ,2,1,0.,12.0,0.,12.0,0.,12.0,0.,12.0
1979-07-13 09:25:03.440 ,2,1,0.,12.0,0.,12.0,0.,12.0,0.,12.0
1979-07-13 09:25:15.440 ,2,0,0.,12.0,0.,12.0,0.,12.0,0.,12.0
1979-07-13 09:25:27.440 ,2,0,0.,12.0,0.,12.0,0.,12.0,0.,12.0
1979-07-13 09:25:39.440 ,3,1,0.,12.0,0.,12.0,0.,12.0,0.,12.0
1979-07-13 09:25:51.440 ,3,1,0.,12.0,0.,12.0,0.,12.0,0.,12.0
1979-07-13 09:26:03.440 ,3,0,0.,12.0,0.,12.0,0.,12.0,0.,12.0
1979-07-13 09:26:15.440 ,3,0,1.,12.0,0.,12.0,0.,12.0,0.,12.0
1979-07-13 09:26:27.440 ,4,1,0.,12.0,0.,12.0,0.,12.0,0.,12.0
1979-07-13 09:26:39.440 ,4,1,0.,12.0,0.,12.0,0.,12.0,0.,12.0
1979-07-13 09:26:51.440 ,4,0,0.,12.0,0.,12.0,0.,12.0,0.,12.0
1979-07-13 09:27:03.440 ,4,0,1.,12.0,0.,12.0,0.,12.0,0.,12.0
1979-07-13 09:27:15.440 ,5,1,0.,12.0,0.,12.0,0.,12.0,0.,12.0
1979-07-13 09:27:27.440 ,5,1,0.,12.0,0.,12.0,0.,12.0,0.,12.0
1979-07-13 09:27:39.440 ,5,0,0.,12.0,0.,12.0,0.,12.0,0.,12.0
1979-07-13 09:27:51.440 ,5,0,1.,12.0,0.,12.0,0.,12.0,0.,12.0
1979-07-13 09:28:03.440 ,6,1,0.,12.0,0.,12.0,0.,12.0,0.,12.0
1979-07-13 09:28:15.440 ,6,1,0.,12.0,0.,12.0,0.,12.0,0.,12.0
1979-07-13 09:28:27.440 ,6,0,0.,12.0,0.,12.0,0.,12.0,0.,12.0
1979-07-13 09:28:39.440 ,6,0,0.,12.0,0.,12.0,0.,12.0,0.,12.0
1979-07-13 09:28:51.440 ,7,1,1.,12.0,0.,12.0,0.,12.0,0.,12.0
1979-07-13 09:29:03.440 ,7,1,0.,12.0,0.,12.0,0.,12.0,0.,12.0
1979-07-13 09:29:15.440 ,7,0,0.,12.0,0.,12.0,0.,12.0,0.,12.0
1979-07-13 09:29:27.440 ,7,0,0.,12.0,0.,12.0,0.,12.0,0.,12.0
1979-07-13 09:29:39.440 ,7,1,0.,12.0,0.,12.0,0.,12.0,0.,12.0
1979-07-13 09:29:51.440 ,7,1,0.,12.0,0.,12.0,0.,12.0,0.,12.0
1979-07-13 09:30:03.440 ,7,0,0.,12.0,0.,12.0,0.,12.0,0.,12.0
1979-07-13 09:30:15.440 ,7,0,0.,12.0,0.,12.0,0.,12.0,0.,12.0
1979-07-13 09:30:27.440 ,6,1,0.,12.0,0.,12.0,0.,12.0,0.,12.0
1979-07-13 09:30:39.440 ,6,1,0.,12.0,0.,12.0,0.,12.0,0.,12.0
1979-07-13 09:30:51.440 ,6,0,0.,12.0,0.,12.0,0.,12.0,0.,12.0
1979-07-13 09:31:03.440 ,6,0,0.,12.0,0.,12.0,0.,12.0,0.,12.0
1979-07-13 09:31:15.440 ,5,1,0.,12.0,0.,12.0,0.,12.0,0.,12.0
1979-07-13 09:31:27.440 ,5,1,0.,12.0,0.,12.0,0.,12.0,0.,12.0
1979-07-13 09:31:39.440 ,5,0,0.,12.0,0.,12.0,0.,12.0,0.,12.0
1979-07-13 09:31:51.440 ,5,0,0.,12.0,0.,12.0,0.,12.0,0.,12.0
1979-07-13 09:32:03.440 ,4,1,0.,12.0,0.,12.0,0.,12.0,0.,12.0
1979-07-13 09:32:15.440 ,4,1,0.,12.0,0.,12.0,0.,12.0,1.,12.0
1979-07-13 09:32:27.440 ,4,0,1.,12.0,0.,12.0,0.,12.0,0.,12.0
1979-07-13 09:32:39.440 ,4,0,0.,12.0,0.,12.0,0.,12.0,0.,12.0
1979-07-13 09:32:51.440 ,3,1,0.,12.0,0.,12.0,0.,12.0,0.,12.0
1979-07-13 09:33:03.440 ,3,1,0.,12.0,0.,12.0,0.,12.0,0.,12.0
1979-07-13 09:33:15.440 ,3,0,0.,12.0,0.,12.0,0.,12.0,0.,12.0
1979-07-13 09:33:27.440 ,3,0,0.,12.0,0.,12.0,0.,12.0,0.,12.0
1979-07-13 09:33:39.440 ,2,1,0.,12.0,0.,12.0,0.,12.0,0.,12.0
1979-07-13 09:33:51.440 ,2,1,0.,12.0,0.,12.0,0.,12.0,0.,12.0
1979-07-13 09:34:03.440 ,2,0,0.,12.0,0.,12.0,0.,12.0,0.,12.0
1979-07-13 09:34:15.440 ,2,0,0.,12.0,0.,12.0,0.,12.0,0.,12.0
1979-07-13 09:34:27.440 ,1,1,0.,12.0,0.,12.0,0.,12.0,0.,12.0
1979-07-13 09:34:39.440 ,1,1,0.,12.0,0.,12.0,0.,12.0,0.,12.0
1979-07-13 09:34:51.440 ,1,0,0.,12.0,0.,12.0,0.,12.0,0.,12.0
1979-07-13 09:35:03.440 ,1,0,0.,12.0,0.,12.0,0.,12.0,0.,12.0
1979-07-13 09:35:15.440 ,0,1,0.,12.0,0.,12.0,0.,12.0,0.,12.0
1979-07-13 09:35:27.440 ,0,1,0.,12.0,0.,12.0,0.,12.0,0.,12.0
1979-07-13 09:35:39.440 ,0,0,0.,12.0,0.,12.0,0.,12.0,0.,12.0
1979-07-13 09:35:51.440 ,0,0,0.,12.0,0.,12.0,0.,12.0,0.,12.0
1979-07-13 09:36:03.440 ,0,1,0.,12.0,0.,12.0,0.,12.0,0.,12.0
1979-07-13 09:36:15.440 ,0,1,0.,12.0,0.,12.0,0.,12.0,0.,12.0
1979-07-13 09:36:27.440 ,0,0,0.,12.0,0.,12.0,0.,12.0,0.,12.0
1979-07-13 09:36:39.440 ,0,0,0.,12.0,0.,12.0,0.,12.0,0.,12.0
1979-07-13 09:36:51.440 ,1,1,0.,12.0,0.,12.0,0.,12.0,0.,12.0
1979-07-13 09:37:03.440 ,1,1,0.,12.0,0.,12.0,0.,12.0,0.,12.0
1979-07-13 09:37:15.440 ,1,0,0.,12.0,0.,12.0,0.,12.0,0.,12.0
1979-07-13 09:37:27.440 ,1,0,0.,12.0,0.,12.0,0.,12.0,0.,12.0
1979-07-13 09:37:39.440 ,2,1,0.,12.0,0.,12.0,0.,12.0,0.,12.0
1979-07-13 09:37:51.440 ,2,1,0.,12.0,0.,12.0,0.,12.0,0.,12.0
1979-07-13 09:38:03.440 ,2,0,0.,12.0,0.,12.0,0.,12.0,0.,12.0
1979-07-13 09:38:15.440 ,2,0,0.,12.0,0.,12.0,0.,12.0,0.,12.0
1979-07-13 09:38:27.440 ,3,1,1.,12.0,0.,12.0,0.,12.0,0.,12.0
1979-07-13 09:38:39.440 ,3,1,0.,12.0,0.,12.0,0.,12.0,0.,12.0
1979-07-13 09:38:51.440 ,3,0,0.,12.0,0.,12.0,0.,12.0,0.,12.0
1979-07-13 09:39:03.440 ,3,0,0.,12.0,0.,12.0,0.,12.0,0.,12.0
1979-07-13 09:39:15.440 ,4,1,1.,12.0,0.,12.0,0.,12.0,0.,12.0
1979-07-13 09:39:27.440 ,4,1,0.,12.0,0.,12.0,0.,12.0,0.,12.0
1979-07-13 09:39:39.440 ,4,0,0.,12.0,0.,12.0,0.,12.0,1.,12.0
1979-07-13 09:39:51.440 ,4,0,0.,12.0,0.,12.0,0.,12.0,0.,12.0
1979-07-13 09:40:03.440 ,5,1,0.,12.0,0.,12.0,0.,12.0,0.,12.0
1979-07-13 09:40:15.440 ,5,1,0.,12.0,0.,12.0,0.,12.0,0.,12.0
1979-07-13 09:40:27.440 ,0,0,0.,12.0,0.,12.0,0.,12.0,0.,12.0
1979-07-13 09:40:39.440 ,0,0,0.,12.0,0.,12.0,0.,12.0,0.,12.0
1979-07-13 09:41:39.440 ,0,0,0.,12.0,0.,12.0,0.,12.0,0.,12.0
1979-07-13 09:41:51.440 ,0,0,0.,12.0,0.,12.0,0.,12.0,0.,12.0
1979-07-13 09:42:03.440 ,0,0,0.,12.0,0.,12.0,0.,12.0,0.,12.0
1979-07-13 09:42:15.440 ,0,0,0.,12.0,0.,12.0,0.,12.0,0.,12.0
1979-07-13 09:42:27.440 ,7,1,0.,12.0,0.,12.0,0.,12.0,0.,12.0
1979-07-13 09:42:39.440 ,7,1,0.,12.0,0.,12.0,0.,12.0,0.,12.0
1979-07-13 09:42:51.440 ,7,0,0.,12.0,0.,12.0,0.,12.0,0.,12.0
1979-07-13 09:43:03.440 ,7,0,0.,12.0,0.,12.0,0.,12.0,0.,12.0
1979-07-13 09:43:15.440 ,6,1,0.,12.0,0.,12.0,0.,12.0,0.,12.0
1979-07-13 09:43:27.440 ,6,1,0.,12.0,0.,12.0,0.,12.0,0.,12.0
1979-07-13 09:43:39.440 ,6,0,0.,12.0,0.,12.0,0.,12.0,0.,12.0
1979-07-13 09:43:51.440 ,6,0,0.,12.0,0.,12.0,0.,12.0,0.,12.0
1979-07-13 09:44:03.440 ,5,1,0.,12.0,0.,12.0,0.,12.0,0.,12.0
1979-07-13 09:44:15.440 ,5,1,0.,12.0,0.,12.0,0.,12.0,0.,12.0
1979-07-13 09:44:27.440 ,5,0,0.,12.0,0.,12.0,0.,12.0,0.,12.0
1979-07-13 09:44:39.440 ,5,0,0.,12.0,0.,12.0,0.,12.0,0.,12.0
1979-07-13 09:44:51.440 ,4,1,0.,12.0,0.,12.0,0.,12.0,0.,12.0
1979-07-13 09:45:03.440 ,4,1,0.,12.0,0.,12.0,0.,12.0,0.,12.0
1979-07-13 09:45:15.440 ,4,0,0.,12.0,0.,12.0,0.,12.0,0.,12.0
1979-07-13 09:45:27.440 ,4,0,0.,12.0,0.,12.0,0.,12.0,0.,12.0
1979-07-13 09:45:39.440 ,3,1,0.,12.0,0.,12.0,0.,12.0,0.,12.0
1979-07-13 09:45:51.440 ,3,1,0.,12.0,0.,12.0,0.,12.0,0.,12.0
1979-07-13 09:46:03.440 ,3,0,0.,12.0,0.,12.0,0.,12.0,0.,12.0
1979-07-13 09:46:15.440 ,3,0,0.,12.0,0.,12.0,0.,12.0,0.,12.0
1979-07-13 09:46:27.440 ,2,1,0.,12.0,0.,12.0,0.,12.0,0.,12.0
1979-07-13 09:46:39.440 ,2,1,1.,12.0,0.,12.0,0.,12.0,0.,12.0
1979-07-13 09:46:51.440 ,2,0,0.,12.0,0.,12.0,0.,12.0,0.,12.0
1979-07-13 09:47:03.440 ,2,0,0.,12.0,0.,12.0,0.,12.0,0.,12.0
1979-07-13 09:47:15.440 ,1,1,0.,12.0,0.,12.0,0.,12.0,0.,12.0
1979-07-13 09:47:27.440 ,1,1,0.,12.0,0.,12.0,0.,12.0,0.,12.0
1979-07-13 09:47:39.440 ,1,0,0.,12.0,0.,12.0,0.,12.0,0.,12.0
1979-07-13 09:47:51.440 ,1,0,0.,12.0,0.,12.0,0.,12.0,0.,12.0
1979-07-13 09:48:03.440 ,0,1,0.,12.0,0.,12.0,0.,12.0,0.,12.0
1979-07-13 09:48:15.440 ,0,1,0.,12.0,0.,12.0,0.,12.0,0.,12.0
1979-07-13 09:48:27.440 ,0,0,0.,12.0,0.,12.0,0.,12.0,0.,12.0
1979-07-13 09:48:39.440 ,0,0,0.,12.0,0.,12.0,0.,12.0,0.,12.0
1979-07-13 09:48:51.440 ,0,1,0.,12.0,0.,12.0,0.,12.0,0.,12.0
1979-07-13 09:49:03.440 ,0,1,0.,12.0,0.,12.0,0.,12.0,0.,12.0
1979-07-13 09:49:15.440 ,0,0,0.,12.0,0.,12.0,0.,12.0,0.,12.0
1979-07-13 09:49:27.440 ,0,0,0.,12.0,0.,12.0,0.,12.0,0.,12.0
1979-07-13 09:49:39.440 ,1,1,0.,12.0,0.,12.0,0.,12.0,0.,12.0
1979-07-13 09:49:51.440 ,1,1,0.,12.0,0.,12.0,0.,12.0,0.,12.0
1979-07-13 09:50:03.440 ,1,0,0.,12.0,0.,12.0,0.,12.0,0.,12.0
1979-07-13 09:50:15.440 ,1,0,0.,12.0,0.,12.0,0.,12.0,0.,12.0
1979-07-13 09:50:27.440 ,2,1,0.,12.0,0.,12.0,0.,12.0,0.,12.0
1979-07-13 09:50:39.440 ,2,1,0.,12.0,0.,12.0,0.,12.0,0.,12.0
1979-07-13 09:50:51.440 ,2,0,0.,12.0,0.,12.0,0.,12.0,0.,12.0
1979-07-13 09:51:03.440 ,2,0,0.,12.0,0.,12.0,0.,12.0,0.,12.0
1979-07-13 09:51:15.440 ,3,1,0.,12.0,0.,12.0,0.,12.0,0.,12.0
1979-07-13 09:51:27.440 ,3,1,0.,12.0,0.,12.0,0.,12.0,0.,12.0
1979-07-13 09:51:39.440 ,3,0,0.,12.0,0.,12.0,0.,12.0,1.,12.0
1979-07-13 09:51:51.440 ,3,0,0.,12.0,0.,12.0,0.,12.0,1.,12.0
1979-07-13 09:52:03.440 ,4,1,0.,12.0,0.,12.0,0.,12.0,0.,12.0
1979-07-13 09:52:15.440 ,4,1,0.,12.0,0.,12.0,0.,12.0,0.,12.0
1979-07-13 09:52:27.440 ,4,0,0.,12.0,0.,12.0,0.,12.0,0.,12.0
1979-07-13 09:52:39.440 ,4,0,0.,12.0,0.,12.0,0.,12.0,0.,12.0
1979-07-13 09:52:51.440 ,5,1,0.,12.0,0.,12.0,0.,12.0,0.,12.0
1979-07-13 09:53:03.440 ,5,1,0.,12.0,0.,12.0,0.,12.0,0.,12.0
1979-07-13 09:53:15.440 ,5,0,0.,12.0,0.,12.0,0.,12.0,0.,12.0
1979-07-13 09:53:27.440 ,5,0,0.,12.0,0.,12.0,0.,12.0,0.,12.0
1979-07-13 09:53:39.440 ,6,1,0.,12.0,0.,12.0,0.,12.0,0.,12.0
1979-07-13 09:53:51.440 ,6,1,0.,12.0,0.,12.0,0.,12.0,0.,12.0
1979-07-13 09:54:03.440 ,6,0,,0,,0,,0,,0
1979-07-13 09:54:15.440 ,6,0,0.,12.0,0.,12.0,0.,12.0,0.,12.0
1979-07-13 09:54:27.440 ,7,0,0.,12.0,0.,12.0,0.,12.0,0.,12.0
1979-07-13 09:54:39.440 ,7,0,0.,12.0,0.,12.0,0.,12.0,0.,12.0
1979-07-13 09:54:51.440 ,7,0,0.,12.0,0.,12.0,0.,12.0,0.,12.0
1979-07-13 09:55:03.440 ,7,0,,0,,0,,0,,0
1979-07-13 09:55:15.440 ,4,1,0.,12.0,0.,12.0,0.,12.0,0.,12.0
1979-07-13 09:55:27.440 ,4,1,0.,12.0,0.,12.0,0.,12.0,0.,12.0
1979-07-13 09:55:39.440 ,0,1,0.,12.0,0.,12.0,0.,12.0,0.,12.0
1979-07-13 09:55:51.440 ,0,1,0.,12.0,0.,12.0,0.,12.0,0.,12.0
1979-07-13 09:56:03.440 ,3,1,0.,12.0,0.,12.0,0.,12.0,0.,12.0
1979-07-13 09:56:15.440 ,3,1,0.,12.0,0.,12.0,0.,12.0,0.,12.0
1979-07-13 09:56:27.440 ,7,1,0.,12.0,0.,12.0,0.,12.0,0.,12.0
1979-07-13 09:56:39.440 ,7,1,0.,12.0,0.,12.0,0.,12.0,0.,12.0
1979-07-13 09:56:51.440 ,4,1,0.,12.0,0.,12.0,0.,12.0,0.,12.0
1979-07-13 09:57:03.440 ,4,1,0.,12.0,0.,12.0,0.,12.0,0.,12.0
1979-07-13 09:57:15.440 ,0,1,0.,12.0,0.,12.0,0.,12.0,0.,12.0
1979-07-13 09:57:27.440 ,0,1,0.,12.0,0.,12.0,0.,12.0,0.,12.0
1979-07-13 09:57:39.440 ,3,1,0.,12.0,0.,12.0,0.,12.0,0.,12.0
1979-07-13 09:57:51.440 ,3,1,0.,12.0,0.,12.0,0.,12.0,0.,12.0
1979-07-13 09:58:03.440 ,7,1,0.,12.0,0.,12.0,0.,12.0,0.,12.0
1979-07-13 09:58:15.440 ,7,1,0.,12.0,0.,12.0,0.,12.0,0.,12.0
1979-07-13 09:58:27.440 ,4,1,0.,12.0,0.,12.0,0.,12.0,0.,12.0
1979-07-13 09:58:39.440 ,4,1,0.,12.0,0.,12.0,0.,12.0,0.,12.0
1979-07-13 09:58:51.440 ,0,1,0.,12.0,0.,12.0,0.,12.0,0.,12.0
1979-07-13 09:59:03.440 ,0,1,0.,12.0,0.,12.0,0.,12.0,0.,12.0
1979-07-13 09:59:15.440 ,3,1,0.,12.0,0.,12.0,0.,12.0,0.,12.0
1979-07-13 09:59:27.440 ,3,1,0.,12.0,0.,12.0,0.,12.0,0.,12.0
1979-07-13 09:59:39.440 ,7,1,0.,12.0,0.,12.0,0.,12.0,0.,12.0
1979-07-13 09:59:51.440 ,7,1,0.,12.0,0.,12.0,0.,12.0,0.,12.0
1979-07-13 10:00:03.430 ,4,1,0.,12.0,0.,12.0,0.,12.0,0.,12.0
1979-07-13 10:00:15.430 ,4,1,0.,12.0,0.,12.0,0.,12.0,0.,12.0
1979-07-13 10:00:27.440 ,0,1,0.,12.0,0.,12.0,0.,12.0,0.,12.0
1979-07-13 10:00:39.440 ,0,1,0.,12.0,0.,12.0,0.,12.0,0.,12.0
1979-07-13 10:00:51.440 ,3,1,0.,12.0,0.,12.0,0.,12.0,0.,12.0
1979-07-13 10:01:03.440 ,3,1,0.,12.0,0.,12.0,0.,12.0,0.,12.0
1979-07-13 10:02:27.440 ,0,0,0.,12.0,0.,12.0,0.,12.0,0.,12.0
1979-07-13 10:02:39.440 ,0,0,0.,12.0,0.,12.0,0.,12.0,0.,12.0
1979-07-13 10:02:51.440 ,7,1,0.,12.0,0.,12.0,0.,12.0,0.,12.0
1979-07-13 10:03:03.440 ,7,1,0.,12.0,0.,12.0,0.,12.0,0.,12.0
1979-07-13 10:03:15.440 ,4,1,0.,12.0,0.,12.0,0.,12.0,0.,12.0
1979-07-13 10:03:27.440 ,4,1,0.,12.0,0.,12.0,0.,12.0,0.,12.0
1979-07-13 10:03:39.440 ,0,1,0.,12.0,0.,12.0,0.,12.0,0.,12.0
1979-07-13 10:03:51.440 ,0,1,0.,12.0,0.,12.0,0.,12.0,0.,12.0
1979-07-13 10:04:03.440 ,3,1,0.,12.0,0.,12.0,0.,12.0,0.,12.0
1979-07-13 10:04:15.440 ,3,1,0.,12.0,0.,12.0,0.,12.0,0.,12.0
1979-07-13 10:04:27.430 ,7,1,0.,12.0,0.,12.0,0.,12.0,0.,12.0
1979-07-13 10:04:39.430 ,7,1,0.,12.0,0.,12.0,0.,12.0,0.,12.0
1979-07-13 10:04:51.430 ,4,1,0.,12.0,0.,12.0,0.,12.0,0.,12.0
1979-07-13 10:05:03.430 ,4,1,0.,12.0,0.,12.0,0.,12.0,0.,12.0
1979-07-13 10:05:15.430 ,0,1,0.,12.0,0.,12.0,0.,12.0,0.,12.0
1979-07-13 10:05:27.430 ,0,1,0.,12.0,0.,12.0,0.,12.0,0.,12.0
1979-07-13 10:05:39.430 ,0,0,0.,12.0,0.,12.0,0.,12.0,0.,12.0
1979-07-13 10:05:51.430 ,0,0,0.,12.0,0.,12.0,0.,12.0,0.,12.0
1979-07-13 10:06:03.430 ,0,0,0.,12.0,0.,12.0,0.,12.0,0.,12.0
1979-07-13 10:06:15.430 ,0,0,0.,12.0,0.,12.0,0.,12.0,0.,12.0
1979-07-13 10:06:27.430 ,5,1,0.,12.0,0.,12.0,0.,12.0,0.,12.0
1979-07-13 10:06:39.430 ,5,1,0.,12.0,0.,12.0,0.,12.0,0.,12.0
1979-07-13 10:06:51.430 ,5,0,0.,12.0,0.,12.0,0.,12.0,0.,12.0
1979-07-13 10:07:03.430 ,5,0,0.,12.0,0.,12.0,0.,12.0,0.,12.0
1979-07-13 10:07:15.430 ,0,0,0.,12.0,0.,12.0,0.,12.0,0.,12.0
1979-07-13 10:07:27.430 ,0,0,0.,12.0,0.,12.0,0.,12.0,0.,12.0
1979-07-13 10:07:39.430 ,0,0,0.,12.0,0.,12.0,0.,12.0,0.,12.0
1979-07-13 10:07:51.430 ,0,0,0.,12.0,0.,12.0,0.,12.0,0.,12.0
1979-07-13 10:08:51.430 ,0,0,0.,12.0,0.,12.0,0.,12.0,0.,12.0
1979-07-13 10:09:03.440 ,0,0,0.,12.0,0.,12.0,0.,12.0,0.,12.0
1979-07-13 10:09:15.430 ,0,0,0.,12.0,0.,12.0,0.,12.0,0.,12.0
1979-07-13 10:09:27.440 ,0,0,0.,12.0,0.,12.0,0.,12.0,0.,12.0
1979-07-13 10:09:39.430 ,1,1,0.,12.0,0.,12.0,0.,12.0,0.,12.0
1979-07-13 10:09:51.440 ,1,1,0.,12.0,0.,12.0,0.,12.0,0.,12.0
1979-07-13 10:10:03.430 ,1,0,1.,12.0,0.,12.0,0.,12.0,0.,12.0
1979-07-13 10:10:15.440 ,1,0,0.,12.0,0.,12.0,0.,12.0,0.,12.0
1979-07-13 10:10:27.430 ,0,1,0.,12.0,0.,12.0,0.,12.0,0.,12.0
1979-07-13 10:10:39.440 ,0,1,0.,12.0,0.,12.0,0.,12.0,0.,12.0
1979-07-13 10:10:51.430 ,0,0,0.,12.0,0.,12.0,0.,12.0,0.,12.0
1979-07-13 10:11:03.440 ,0,0,0.,12.0,0.,12.0,0.,12.0,0.,12.0
1979-07-13 10:11:15.430 ,0,1,0.,12.0,0.,12.0,0.,12.0,0.,12.0
1979-07-13 10:11:27.440 ,0,1,0.,12.0,0.,12.0,0.,12.0,0.,12.0
1979-07-13 10:11:39.430 ,0,0,0.,12.0,0.,12.0,0.,12.0,0.,12.0
1979-07-13 10:11:51.440 ,0,0,0.,12.0,0.,12.0,0.,12.0,0.,12.0
1979-07-13 10:12:03.430 ,1,1,0.,12.0,0.,12.0,0.,12.0,0.,12.0
1979-07-13 10:12:15.430 ,1,1,1.,12.0,0.,12.0,0.,12.0,0.,12.0
1979-07-13 10:12:27.430 ,1,0,0.,12.0,0.,12.0,0.,12.0,0.,12.0
1979-07-13 10:12:39.430 ,1,0,0.,12.0,0.,12.0,0.,12.0,0.,12.0
1979-07-13 10:12:51.430 ,2,1,0.,12.0,0.,12.0,0.,12.0,0.,12.0
1979-07-13 10:13:03.430 ,2,1,0.,12.0,0.,12.0,0.,12.0,0.,12.0
1979-07-13 10:13:15.430 ,2,0,0.,12.0,0.,12.0,0.,12.0,0.,12.0
1979-07-13 10:13:27.430 ,2,0,0.,12.0,0.,12.0,0.,12.0,0.,12.0
1979-07-13 10:13:39.430 ,3,1,0.,12.0,0.,12.0,0.,12.0,0.,12.0
1979-07-13 10:13:51.430 ,3,1,0.,12.0,0.,12.0,0.,12.0,0.,12.0
1979-07-13 10:14:03.430 ,3,0,0.,12.0,0.,12.0,0.,12.0,0.,12.0
1979-07-13 10:14:15.430 ,3,0,0.,12.0,0.,12.0,0.,12.0,0.,12.0
1979-07-13 10:14:27.430 ,4,1,0.,12.0,0.,12.0,0.,12.0,0.,12.0
1979-07-13 10:14:39.430 ,4,1,0.,12.0,0.,12.0,0.,12.0,0.,12.0
1979-07-13 10:14:51.430 ,4,0,0.,12.0,0.,12.0,0.,12.0,0.,12.0
1979-07-13 10:15:03.430 ,4,0,0.,12.0,0.,12.0,0.,12.0,0.,12.0
1979-07-13 10:16:03.430 ,0,0,0.,12.0,0.,12.0,0.,12.0,0.,12.0
1979-07-13 10:16:15.430 ,0,0,0.,12.0,0.,12.0,0.,12.0,0.,12.0
1979-07-13 10:16:27.430 ,0,0,0.,12.0,0.,12.0,0.,12.0,0.,12.0
1979-07-13 10:16:39.430 ,0,0,0.,12.0,0.,12.0,0.,12.0,0.,12.0
1979-07-13 10:16:51.430 ,7,1,0.,12.0,0.,12.0,0.,12.0,0.,12.0
1979-07-13 10:17:03.430 ,7,1,0.,12.0,0.,12.0,0.,12.0,0.,12.0
1979-07-13 10:17:15.430 ,7,0,0.,12.0,0.,12.0,0.,12.0,0.,12.0
1979-07-13 10:17:27.430 ,7,0,0.,12.0,0.,12.0,0.,12.0,0.,12.0
1979-07-13 10:17:39.430 ,7,1,0.,12.0,0.,12.0,0.,12.0,0.,12.0
1979-07-13 10:17:51.430 ,7,1,0.,12.0,0.,12.0,0.,12.0,0.,12.0
1979-07-13 10:18:03.430 ,7,0,0.,12.0,0.,12.0,0.,12.0,0.,12.0
1979-07-13 10:18:15.430 ,7,0,0.,12.0,0.,12.0,0.,12.0,0.,12.0
1979-07-13 10:18:27.430 ,6,1,0.,12.0,0.,12.0,0.,12.0,0.,12.0
1979-07-13 10:18:39.430 ,6,1,0.,12.0,0.,12.0,0.,12.0,0.,12.0
1979-07-13 10:18:51.430 ,6,0,0.,12.0,0.,12.0,0.,12.0,0.,12.0
1979-07-13 10:19:03.430 ,6,0,0.,12.0,0.,12.0,0.,12.0,0.,12.0
1979-07-13 10:19:15.430 ,5,1,0.,12.0,0.,12.0,0.,12.0,0.,12.0
1979-07-13 10:19:27.430 ,5,1,0.,12.0,0.,12.0,0.,12.0,0.,12.0
1979-07-13 10:19:39.430 ,5,0,0.,12.0,0.,12.0,0.,12.0,0.,12.0
1979-07-13 10:19:51.430 ,5,0,0.,12.0,0.,12.0,0.,12.0,0.,12.0
1979-07-13 10:20:03.430 ,4,1,0.,12.0,0.,12.0,0.,12.0,0.,12.0
1979-07-13 10:20:15.430 ,4,1,0.,12.0,0.,12.0,0.,12.0,0.,12.0
1979-07-13 10:20:27.430 ,4,0,0.,12.0,0.,12.0,0.,12.0,0.,12.0
1979-07-13 10:20:39.430 ,4,0,0.,12.0,0.,12.0,0.,12.0,0.,12.0
1979-07-13 10:20:51.430 ,3,1,0.,12.0,0.,12.0,0.,12.0,0.,12.0
1979-07-13 10:21:03.430 ,3,1,0.,12.0,0.,12.0,0.,12.0,0.,12.0
1979-07-13 10:21:15.430 ,3,0,0.,12.0,0.,12.0,0.,12.0,0.,12.0
1979-07-13 10:21:27.430 ,3,0,0.,12.0,0.,12.0,0.,12.0,0.,12.0
1979-07-13 10:21:39.430 ,2,1,1.,12.0,0.,12.0,0.,12.0,0.,12.0
1979-07-13 10:21:51.430 ,2,1,0.,12.0,0.,12.0,0.,12.0,0.,12.0
1979-07-13 10:22:03.430 ,2,0,0.,12.0,0.,12.0,0.,12.0,0.,12.0
1979-07-13 10:22:15.430 ,2,0,0.,12.0,0.,12.0,0.,12.0,0.,12.0